Regional Weather Roundup
Issued by NWS Cleveland, OH

Home | Current Version | Previous Version | Graphics & Text | Print | Product List | Glossary On
Versions: 1 2 3 4 5 6 7 8 9 10 11 12 13 14 15 16 17 18 19 20 21 22 23 24 25 26 27 28 29 30 31 32 33 34 35 36 37 38 39 40 41 42 43 44 45 46 47 48 49 50
000
ASUS41 KCLE 231712
RWRCLE
OHIO REGIONAL WEATHER ROUNDUP
NATIONAL WEATHER SERVICE WILMINGTON, OH
100 PM EDT SUN APR 23 2017

NOTE: "FAIR" INDICATES FEW OR NO CLOUDS BELOW 12,000 FEET WITH NO
SIGNIFICANT WEATHER AND/OR OBSTRUCTIONS TO VISIBILITY.

OHZ001>008-015>018-024>027-034-035-043-044-231800-
   NORTHWEST OHIO

CITY           SKY/WX    TMP DP  RH WIND       PRES   REMARKS
DEFIANCE       FAIR      60  33  36 E8        30.10F
FINDLAY        FAIR      63  35  35 NE10      30.09S
TOLEDO EXPRESS FAIR      63  21  20 E7        30.09F
TOLEDO EXEC    FAIR      61  37  41 NE7       30.11F
LIMA           FAIR      62  37  39 NE9       30.09S
$$

OHZ009>014-019>023-028>033-038-089-231800-
   NORTHEAST OHIO

CITY           SKY/WX    TMP DP  RH WIND       PRES   REMARKS
CLE-HOPKINS    FAIR      64  33  31 VRB7      30.12S
CLE-LAKEFRONT  FAIR      51  43  74 N10       30.11R
CUY CO. ARPT   SUNNY     59  43  55 N12       30.11
LORAIN-ELYRIA  FAIR      62  30  29 VRB5      30.10F
ASHTABULA      FAIR      60  30  32 CALM      30.11F
AKRON-CANTON   FAIR      61  33  35 E10G18    30.10S
WOOSTER        FAIR      60  35  39 E7        30.10F
MANSFIELD      FAIR      61  32  33 E9        30.09S
YOUNGSTOWN     FAIR      61  33  35 E3        30.09F
$$

OHZ042-051>053-060>062-070>072-077>081-231800-
  SOUTHWEST OHIO

CITY           SKY/WX    TMP DP  RH WIND       PRES   REMARKS
CINC-COVINGTON PTSUNNY   59  37  44 NE15      30.00F
CINC-LUNKEN    FAIR      59  43  55 NE9       30.01F
HAMILTON       FAIR      63  41  44 NE9       30.01F
DAYTON         FAIR      63  33  32 NE17G25   30.04F
WRIGHT-PAT AFB FAIR      64  33  31 NE12G18   30.02F
DAYTON GENERAL FAIR      62  37  39 NE18      29.99F
WILMINGTON     FAIR      56  40  55 NE16G23   29.99F
$$

OHZ036-037-039>041-045>050-054>059-063>069-073>076-082>088-231800-
  CENTRAL AND SOUTHEAST OHIO

CITY           SKY/WX    TMP DP  RH WIND       PRES   REMARKS
COLUMBUS       FAIR      64  37  36 NE13      30.04F
OSU AIRPORT    FAIR      63  35  35 NE10      30.03F
BOLTON FIELD   SUNNY     63  37  39 NE8G18    30.04F
RICKENBACK AFB FAIR      60  39  45 NE13G20   30.02F
NEWARK         FAIR      63  35  35 NE10      30.05F
MARION         FAIR      65  31  28 E10       30.07F
LANCASTER      FAIR      65  38  36 NE13      30.03F
ZANESVILLE     FAIR      64  35  34 NE10      30.05F
NEW PHILLY     FAIR      63  35  35 E12       30.08F
$$




USA.gov is the U.S. government's official web portal to all federal, state and local government web resources and services.